GW6448 Weather Reports


time (UTC)temp
C
wind
direction
speed
KPH
gust
KPH
rain 1hr
cm
rain 24hr
cm
rain mn
cm
humidity
%
barometer
mb
20260504180504 22 215 11.3 22.5 0.00 0.00 0.00 33 1013.1
20260504180020 22 270 11.3 22.5 0.00 0.00 0.00 33 1013.2
20260504175511 22 254 8.0 24.1 0.00 0.00 0.00 33 1013.2
20260504175011 22 195 11.3 24.1 0.00 0.00 0.00 32 1013.3
20260504174519 22 278 11.3 24.1 0.00 0.00 0.00 34 1013.2
20260504174007 22 276 6.4 24.1 0.00 0.00 0.00 33 1013.3
20260504173510 22 240 11.3 19.3 0.00 0.00 0.00 32 1013.4
20260504173033 22 303 8.0 20.9 0.00 0.00 0.00 33 1013.4
20260504172509 22 255 11.3 20.9 0.00 0.00 0.00 32 1013.5
20260504172007 22 302 6.4 22.5 0.00 0.00 0.00 34 1013.7
20260504171525 22 222 9.7 24.1 0.00 0.00 0.00 32 1013.8
20260504171013 22 200 8.0 24.1 0.00 0.00 0.00 33 1013.8
20260504170504 22 275 4.8 22.5 0.00 0.00 0.00 32 1013.7
20260504151011 19 229 9.7 20.9 0.00 0.00 0.00 38 1015.0
20260504150514 19 260 11.3 20.9 0.00 0.00 0.00 39 1015.0
20260504141006 17 298 3.2 8.0 0.00 0.00 0.00 45 1015.1
20260504140504 17 267 4.8 9.7 0.00 0.00 0.00 44 1015.2
20260504130503 13 281 1.6 11.3 0.00 0.00 0.00 54 1015.5
20260504110507 8 251 0.0 3.2 0.00 0.00 0.00 69 1016.1
20260504100509 8 248 0.0 3.2 0.00 0.00 0.00 67 1015.9
20260504081516 8 272 0.0 3.2 0.00 0.00 0.00 69 1016.2
20260504081011 8 272 0.0 3.2 0.00 0.00 0.00 68 1016.2
20260504080511 8 272 0.0 3.2 0.00 0.00 0.00 68 1016.1
20260504050504 8 273 1.6 6.4 0.00 0.00 0.00 62 1016.2
20260504050007 8 244 1.6 4.8 0.00 0.00 0.00 65 1016.2
20260504045506 8 250 1.6 3.2 0.00 0.00 0.00 64 1016.2
20260504045009 8 253 0.0 3.2 0.00 0.00 0.00 64 1016.1
20260504044523 8 247 0.0 3.2 0.00 0.00 0.00 66 1016.1
20260504044006 8 247 0.0 3.2 0.00 0.00 0.00 67 1016.1
20260504043506 8 247 0.0 3.2 0.00 0.00 0.00 66 1016.0
20260504043008 8 248 0.0 3.2 0.00 0.00 0.00 66 1016.0
20260504042503 8 248 0.0 3.2 0.00 0.00 0.00 67 1016.0
20260504042009 8 246 0.0 3.2 0.00 0.00 0.00 67 1016.1
20260504041508 8 246 0.0 3.2 0.00 0.00 0.00 66 1016.0
20260504041006 8 246 0.0 3.2 0.00 0.00 0.00 65 1016.0
20260504040505 8 239 0.0 3.2 0.00 0.00 0.00 64 1015.9
20260504040012 8 238 0.0 3.2 0.00 0.00 0.00 63 1016.0
20260504035513 8 231 0.0 3.2 0.00 0.00 0.00 62 1016.0
20260504035007 8 231 0.0 3.2 0.00 0.00 0.00 63 1016.0
20260504034509 8 225 0.0 3.2 0.00 0.00 0.00 64 1016.1
20260504034006 8 223 0.0 3.2 0.00 0.00 0.00 63 1016.1
20260504033508 8 223 0.0 3.2 0.00 0.00 0.00 63 1016.1
20260504033012 7 244 0.0 3.2 0.00 0.00 0.00 64 1016.0
20260504032506 7 244 0.0 1.6 0.00 0.00 0.00 63 1016.0
20260504032006 7 244 0.0 3.2 0.00 0.00 0.00 64 1016.0
20260504031516 7 244 0.0 3.2 0.00 0.00 0.00 65 1016.0
20260504031007 7 244 0.0 1.6 0.00 0.00 0.00 64 1016.1
20260504030504 7 252 0.0 1.6 0.00 0.00 0.00 65 1016.2
20260504030014 7 252 0.0 1.6 0.00 0.00 0.00 63 1016.2
20260504025506 7 242 0.0 3.2 0.00 0.00 0.00 63 1016.2
20260504025003 7 242 1.6 3.2 0.00 0.00 0.00 64 1016.2
20260504024519 7 242 1.6 1.6 0.00 0.00 0.00 63 1016.1
20260504024011 7 243 0.0 3.2 0.00 0.00 0.00 63 1016.1
20260504023507 7 243 1.6 3.2 0.00 0.00 0.00 62 1016.1
20260504023019 7 243 0.0 3.2 0.00 0.00 0.00 61 1016.0
20260504022508 7 243 0.0 1.6 0.00 0.00 0.00 61 1016.1
20260504022004 8 234 0.0 1.6 0.00 0.00 0.00 61 1016.1
20260504021525 8 234 0.0 3.2 0.00 0.00 0.00 60 1016.0
20260504021006 8 234 1.6 3.2 0.00 0.00 0.00 59 1016.1
20260504020503 8 234 0.0 3.2 0.00 0.00 0.00 59 1016.1
20260504020020 8 234 1.6 3.2 0.00 0.00 0.00 58 1016.0
20260504015508 8 233 0.0 3.2 0.00 0.00 0.00 58 1015.9
20260504015003 8 243 1.6 3.2 0.00 0.00 0.00 58 1015.8
20260504014520 8 245 0.0 3.2 0.00 0.00 0.00 59 1015.7
20260504014008 8 245 0.0 3.2 0.00 0.00 0.00 57 1015.8
20260504013503 8 246 0.0 3.2 0.00 0.00 0.00 57 1015.7
20260504013032 8 252 0.0 1.6 0.00 0.00 0.00 58 1015.7
20260504012509 8 252 1.6 1.6 0.00 0.00 0.00 59 1015.8
20260504012004 9 241 1.6 1.6 0.00 0.00 0.00 58 1015.7
20260504011520 9 240 1.6 3.2 0.00 0.00 0.00 57 1015.6
20260504011009 9 227 0.0 3.2 0.00 0.00 0.00 57 1015.5
20260504010504 9 225 1.6 3.2 0.00 0.00 0.00 58 1015.5
20260504010021 9 235 1.6 3.2 0.00 0.00 0.00 57 1015.5
20260504005507 9 254 1.6 3.2 0.00 0.00 0.00 57 1015.5
20260504005007 10 252 1.6 3.2 0.00 0.00 0.00 58 1015.5
20260504004524 10 254 1.6 1.6 0.00 0.00 0.00 59 1015.4
20260504004008 10 254 1.6 1.6 0.00 0.00 0.00 59 1015.4
20260504003508 10 253 1.6 3.2 0.00 0.00 0.00 57 1015.5
20260504003023 10 260 1.6 3.2 0.00 0.00 0.00 56 1015.4
20260504002508 11 264 1.6 3.2 0.00 0.00 0.00 55 1015.4
20260504002008 11 264 1.6 3.2 0.00 0.00 0.00 53 1015.3
20260504001520 11 262 1.6 3.2 0.00 0.00 0.00 50 1015.4
20260504001005 12 257 1.6 3.2 0.00 0.00 0.00 49 1015.3
20260504000508 12 247 0.0 1.6 0.00 0.00 0.00 46 1015.2
20260504000023 12 247 0.0 1.6 0.00 0.00 0.00 46 1015.1
20260503235504 13 247 0.0 1.6 0.00 0.00 0.00 46 1015.2
20260503235007 13 247 1.6 1.6 0.00 0.00 0.00 43 1015.1
20260503234522 14 247 0.0 1.6 0.00 0.00 0.00 42 1015.0
20260503234006 15 247 0.0 1.6 0.00 0.00 0.00 40 1015.0
20260503233507 15 247 1.6 3.2 0.00 0.00 0.00 38 1015.0
20260503233022 16 247 1.6 3.2 0.00 0.00 0.00 36 1015.0
20260503232503 16 247 0.0 3.2 0.00 0.00 0.00 34 1014.8
20260503232013 16 247 1.6 3.2 0.00 0.00 0.00 33 1014.9
20260503231522 17 235 1.6 4.8 0.00 0.00 0.00 30 1014.9
20260503231005 17 235 0.0 4.8 0.00 0.00 0.00 27 1014.8
20260503230509 17 235 1.6 4.8 0.00 0.00 0.00 27 1014.8
20260503230025 17 268 0.0 9.7 0.00 0.00 0.00 28 1014.7
20260503225505 17 277 3.2 9.7 0.00 0.00 0.00 26 1014.7
20260503225009 17 238 3.2 9.7 0.00 0.00 0.00 27 1014.8
20260503224524 17 266 1.6 9.7 0.00 0.00 0.00 27 1014.9
20260503224009 17 268 4.8 11.3 0.00 0.00 0.00 27 1014.9
20260503223511 17 284 3.2 11.3 0.00 0.00 0.00 26 1015.0
20260503223026 17 233 1.6 16.1 0.00 0.00 0.00 26 1015.0
20260503222508 17 290 3.2 16.1 0.00 0.00 0.00 27 1015.0
20260503222010 17 257 6.4 14.5 0.00 0.00 0.00 26 1015.0
20260503221532 17 294 4.8 12.9 0.00 0.00 0.00 26 1015.1
20260503221009 17 274 4.8 12.9 0.00 0.00 0.00 27 1015.1
20260503220510 17 327 3.2 12.9 0.00 0.00 0.00 26 1015.1
20260503220024 17 9 4.8 12.9 0.00 0.00 0.00 26 1015.2
20260503215506 17 283 3.2 12.9 0.00 0.00 0.00 26 1015.2
20260503215008 17 352 3.2 14.5 0.00 0.00 0.00 26 1015.1
20260503214525 17 257 8.0 14.5 0.00 0.00 0.00 25 1015.2
20260503214015 18 345 1.6 12.9 0.00 0.00 0.00 28 1015.1
20260503213509 17 136 4.8 12.9 0.00 0.00 0.00 26 1015.1
20260503213027 18 5 3.2 8.0 0.00 0.00 0.00 26 1015.2
20260503212507 17 317 1.6 8.0 0.00 0.00 0.00 27 1015.1
20260503212010 17 59 0.0 19.3 0.00 0.00 0.00 26 1015.2
20260503211520 17 340 4.8 22.5 0.00 0.00 0.00 28 1015.2
20260503211004 17 260 11.3 19.3 0.00 0.00 0.00 28 1015.1
20260503210505 17 360 6.4 16.1 0.00 0.00 0.00 27 1015.1
20260503210021 17 281 4.8 17.7 0.00 0.00 0.00 28 1015.2
20260503205502 17 336 9.7 16.1 0.00 0.00 0.00 29 1015.3
20260503205010 17 97 1.6 12.9 0.00 0.00 0.00 28 1015.3
20260503204524 17 204 3.2 19.3 0.00 0.00 0.00 28 1015.3
20260503204002 17 261 6.4 19.3 0.00 0.00 0.00 29 1015.3
20260503203506 17 319 12.9 20.9 0.00 0.00 0.00 28 1015.4
20260503203020 17 252 6.4 20.9 0.00 0.00 0.00 28 1015.5
20260503202503 16 220 4.8 16.1 0.00 0.00 0.00 29 1015.5
20260503202008 16 245 4.8 24.1 0.00 0.00 0.00 28 1015.6
20260503201529 16 342 11.3 27.4 0.00 0.00 0.00 29 1015.6
20260503201005 16 211 9.7 27.4 0.00 0.00 0.00 28 1015.6
20260503200507 17 265 9.7 27.4 0.00 0.00 0.00 28 1015.7
20260503200030 16 271 3.2 14.5 0.00 0.00 0.00 30 1015.8
20260503195503 16 277 8.0 17.7 0.00 0.00 0.00 27 1015.9
20260503195006 16 303 9.7 17.7 0.00 0.00 0.00 29 1016.0
20260503194529 16 310 4.8 22.5 0.00 0.00 0.00 30 1016.1
20260503194003 16 334 14.5 20.9 0.00 0.00 0.00 30 1016.1
20260503193506 16 25 6.4 17.7 0.00 0.00 0.00 29 1016.2
20260503193022 16 15 6.4 16.1 0.00 0.00 0.00 29 1016.4
20260503192503 16 323 3.2 19.3 0.00 0.00 0.00 30 1016.5
20260503192011 16 288 9.7 19.3 0.00 0.00 0.00 29 1016.5
20260503191504 16 336 9.7 16.1 0.00 0.00 0.00 29 1016.5
20260503191004 16 76 6.4 16.1 0.00 0.00 0.00 29 1016.6
20260503190507 16 232 3.2 17.7 0.00 0.00 0.00 33 1016.7
20260503190007 15 210 6.4 20.9 0.00 0.00 0.00 31 1016.7
20260503185503 15 271 8.0 43.5 0.00 0.00 0.00 30 1016.7
20260503185006 15 194 4.8 43.5 0.00 0.00 0.00 31 1016.8
20260503184507 15 288 8.0 16.1 0.00 0.00 0.00 30 1016.8
20260503184003 15 250 4.8 16.1 0.00 0.00 0.00 30 1016.8
20260503183515 15 254 6.4 17.7 0.00 0.00 0.00 29 1017.1
20260503183017 15 330 8.0 25.7 0.00 0.00 0.00 31 1017.1
20260503182507 15 332 9.7 25.7 0.00 0.00 0.00 30 1017.1
20260503182008 15 5 14.5 22.5 0.00 0.00 0.00 31 1017.2
20260503181523 15 315 3.2 16.1 0.00 0.00 0.00 33 1017.1
20260503181004 15 277 4.8 20.9 0.00 0.00 0.00 31 1017.1